TimeCDT,TemperatureF,Dew PointF,Humidity,Sea Level PressureIn,VisibilityMPH,Wind Direction,Wind SpeedMPH,Gust SpeedMPH,PrecipitationIn,Events,Conditions,WindDirDegrees,DateUTC
12:03 AM,28.4,26.6,93,29.83,10.0,WNW,6.9,-,N/A,Snow,Light Snow,290,2013-04-13 05:03:00
12:23 AM,26.6,26.6,100,29.83,10.0,WNW,5.8,-,N/A,Snow,Light Snow,290,2013-04-13 05:23:00
12:43 AM,26.6,26.6,100,29.84,10.0,WNW,4.6,-,N/A,,Overcast,290,2013-04-13 05:43:00
1:03 AM,26.6,26.6,100,29.84,10.0,West,5.8,-,N/A,Snow,Light Snow,280,2013-04-13 06:03:00
1:22 AM,26.6,26.6,100,29.84,10.0,West,6.9,-,N/A,,Overcast,270,2013-04-13 06:22:00
1:43 AM,28.4,26.6,93,29.84,10.0,West,5.8,-,N/A,,Mostly Cloudy,270,2013-04-13 06:43:00
2:03 AM,28.4,26.6,93,29.84,5.0,West,4.6,-,N/A,Snow,Light Snow,270,2013-04-13 07:03:00
2:22 AM,28.4,26.6,93,29.84,2.5,West,5.8,-,N/A,Snow,Light Snow,270,2013-04-13 07:22:00
2:43 AM,28.4,26.6,93,29.83,3.0,West,6.9,-,N/A,Snow,Light Snow,270,2013-04-13 07:43:00
3:02 AM,28.4,26.6,93,29.83,4.0,West,3.5,-,N/A,Snow,Light Snow,260,2013-04-13 08:02:00
3:23 AM,28.4,26.6,93,29.83,5.0,West,4.6,-,N/A,Snow,Light Snow,270,2013-04-13 08:23:00
3:43 AM,26.6,26.6,100,29.83,5.0,West,4.6,-,N/A,Snow,Light Snow,260,2013-04-13 08:43:00
4:02 AM,26.6,26.6,100,29.83,5.0,West,3.5,-,N/A,Snow,Light Snow,270,2013-04-13 09:02:00
4:23 AM,26.6,26.6,100,29.83,7.0,WSW,3.5,-,N/A,Snow,Light Snow,250,2013-04-13 09:23:00
4:42 AM,26.6,26.6,100,29.83,7.0,WSW,3.5,-,N/A,,Overcast,250,2013-04-13 09:42:00
5:03 AM,28.4,26.6,93,29.83,10.0,West,6.9,-,N/A,,Overcast,260,2013-04-13 10:03:00
5:23 AM,28.4,26.6,93,29.83,10.0,West,11.5,-,N/A,,Overcast,280,2013-04-13 10:23:00
5:42 AM,28.4,26.6,93,29.83,10.0,West,8.1,-,N/A,,Overcast,260,2013-04-13 10:42:00
6:03 AM,26.6,26.6,100,29.84,10.0,West,9.2,-,N/A,,Overcast,270,2013-04-13 11:03:00
6:22 AM,26.6,24.8,93,29.84,10.0,West,10.4,-,N/A,,Overcast,260,2013-04-13 11:22:00
6:43 AM,26.6,24.8,93,29.84,10.0,West,9.2,-,N/A,,Overcast,270,2013-04-13 11:43:00
7:03 AM,26.6,24.8,93,29.84,10.0,West,10.4,-,N/A,,Overcast,270,2013-04-13 12:03:00
7:22 AM,26.6,24.8,93,29.85,10.0,West,11.5,-,N/A,,Overcast,270,2013-04-13 12:22:00
7:43 AM,28.4,24.8,86,29.85,10.0,West,11.5,-,N/A,,Overcast,270,2013-04-13 12:43:00
8:02 AM,28.4,24.8,86,29.86,10.0,West,10.4,-,N/A,,Overcast,270,2013-04-13 13:02:00
8:23 AM,28.4,24.8,86,29.86,10.0,West,8.1,-,N/A,,Overcast,260,2013-04-13 13:23:00
8:43 AM,28.4,24.8,86,29.87,7.0,West,11.5,17.3,N/A,,Overcast,270,2013-04-13 13:43:00
9:02 AM,28.4,24.8,86,29.87,5.0,West,10.4,-,N/A,,Overcast,280,2013-04-13 14:02:00
9:23 AM,28.4,24.8,86,29.87,10.0,West,15.0,19.6,N/A,,Overcast,280,2013-04-13 14:23:00
9:42 AM,28.4,24.8,86,29.87,10.0,West,13.8,-,N/A,,Overcast,270,2013-04-13 14:42:00
10:03 AM,28.4,24.8,86,29.87,10.0,West,12.7,-,N/A,,Overcast,280,2013-04-13 15:03:00
10:23 AM,30.2,24.8,80,29.87,10.0,WNW,12.7,-,N/A,,Overcast,290,2013-04-13 15:23:00
10:42 AM,30.2,24.8,80,29.88,10.0,West,12.7,17.3,N/A,,Overcast,270,2013-04-13 15:42:00
11:03 AM,30.2,24.8,80,29.88,10.0,West,11.5,-,N/A,,Overcast,270,2013-04-13 16:03:00
11:23 AM,32.0,24.8,75,29.88,10.0,West,10.4,-,N/A,,Overcast,260,2013-04-13 16:23:00
11:43 AM,33.8,24.8,70,29.89,10.0,West,9.2,16.1,N/A,,Overcast,270,2013-04-13 16:43:00
12:03 PM,33.8,24.8,70,29.89,10.0,West,11.5,-,N/A,,Overcast,270,2013-04-13 17:03:00
12:22 PM,33.8,23.0,65,29.89,10.0,West,12.7,17.3,N/A,,Overcast,270,2013-04-13 17:22:00
12:43 PM,33.8,23.0,65,29.89,10.0,West,10.4,17.3,N/A,,Overcast,260,2013-04-13 17:43:00
1:02 PM,33.8,23.0,65,29.89,10.0,WSW,10.4,-,N/A,,Overcast,250,2013-04-13 18:02:00
1:23 PM,33.8,23.0,65,29.89,10.0,West,9.2,17.3,N/A,,Overcast,260,2013-04-13 18:23:00
1:43 PM,33.8,23.0,65,29.90,10.0,WSW,11.5,17.3,N/A,,Overcast,250,2013-04-13 18:43:00
2:02 PM,33.8,24.8,70,29.89,10.0,West,12.7,18.4,N/A,,Overcast,270,2013-04-13 19:02:00
2:23 PM,35.6,24.8,65,29.90,10.0,West,9.2,-,N/A,,Overcast,260,2013-04-13 19:23:00
2:42 PM,35.6,23.0,60,29.89,10.0,West,11.5,-,N/A,,Overcast,280,2013-04-13 19:42:00
3:03 PM,33.8,24.8,70,29.89,10.0,West,10.4,-,N/A,,Overcast,280,2013-04-13 20:03:00
3:23 PM,33.8,24.8,70,29.89,10.0,West,10.4,-,N/A,,Overcast,270,2013-04-13 20:23:00
3:42 PM,33.8,24.8,70,29.89,10.0,West,8.1,-,N/A,,Overcast,280,2013-04-13 20:42:00
4:03 PM,33.8,24.8,70,29.89,10.0,West,6.9,-,N/A,,Overcast,280,2013-04-13 21:03:00
4:22 PM,33.8,24.8,70,29.89,10.0,West,6.9,-,N/A,,Overcast,280,2013-04-13 21:22:00
4:43 PM,35.6,23.0,60,29.88,10.0,West,8.1,-,N/A,,Overcast,280,2013-04-13 21:43:00
5:03 PM,33.8,21.2,60,29.89,10.0,West,5.8,-,N/A,,Overcast,270,2013-04-13 22:03:00
5:22 PM,33.8,23.0,65,29.89,10.0,West,5.8,-,N/A,,Overcast,270,2013-04-13 22:22:00
5:43 PM,33.8,23.0,65,29.89,10.0,Calm,Calm,-,N/A,,Overcast,0,2013-04-13 22:43:00
6:02 PM,33.8,21.2,60,29.89,10.0,Calm,Calm,-,N/A,,Mostly Cloudy,0,2013-04-13 23:02:00
6:23 PM,33.8,21.2,60,29.90,10.0,Calm,Calm,-,N/A,,Mostly Cloudy,0,2013-04-13 23:23:00
6:42 PM,33.8,21.2,60,29.90,10.0,Calm,Calm,-,N/A,,Overcast,0,2013-04-13 23:42:00
7:03 PM,32.0,23.0,69,29.90,10.0,Calm,Calm,-,N/A,,Overcast,0,2013-04-14 00:03:00
7:23 PM,32.0,23.0,69,29.90,10.0,Calm,Calm,-,N/A,,Overcast,0,2013-04-14 00:23:00
7:43 PM,32.0,23.0,69,29.90,10.0,Calm,Calm,-,N/A,,Overcast,0,2013-04-14 00:43:00
8:03 PM,32.0,23.0,69,29.91,10.0,Calm,Calm,-,N/A,,Overcast,0,2013-04-14 01:03:00
8:22 PM,32.0,23.0,69,29.91,10.0,Calm,Calm,-,N/A,,Overcast,0,2013-04-14 01:22:00
8:43 PM,30.2,23.0,75,29.91,10.0,Calm,Calm,-,N/A,,Mostly Cloudy,0,2013-04-14 01:43:00
9:03 PM,30.2,23.0,75,29.92,10.0,Calm,Calm,-,N/A,,Scattered Clouds,0,2013-04-14 02:03:00
9:22 PM,28.4,23.0,80,29.93,10.0,Calm,Calm,-,N/A,,Scattered Clouds,0,2013-04-14 02:22:00
9:43 PM,28.4,24.8,86,29.94,10.0,Calm,Calm,-,N/A,,Mostly Cloudy,0,2013-04-14 02:43:00
10:02 PM,28.4,24.8,86,29.95,10.0,Calm,Calm,-,N/A,,Overcast,0,2013-04-14 03:02:00
10:23 PM,28.4,24.8,86,29.95,10.0,Calm,Calm,-,N/A,,Mostly Cloudy,0,2013-04-14 03:23:00
10:43 PM,26.6,24.8,93,29.95,10.0,Calm,Calm,-,N/A,,Scattered Clouds,0,2013-04-14 03:43:00
11:02 PM,28.4,24.8,86,29.95,10.0,Calm,Calm,-,N/A,,Mostly Cloudy,0,2013-04-14 04:02:00
11:23 PM,28.4,24.8,86,29.95,10.0,East,3.5,-,N/A,,Overcast,90,2013-04-14 04:23:00
11:42 PM,28.4,24.8,86,29.94,10.0,East,5.8,-,N/A,,Overcast,100,2013-04-14 04:42:00